Location: Bernadets
(43.3537°N, 0.3167°E)
Time: 23:50:21
(UTC+00:00)

USA 215 - Pass Details

Date: 24 October 2021
Orbit: 1099 x 1109 km, 123.0° (Epoch: 20 November)

Event Time Altitude Azimuth Distance (km) Brightness Sun altitude
Exits shadow 17:21:14 - 48° (NE) 3,938 5.6 -4.3°
Rises 17:21:16 0° 48° (NE) 3,923 5.6 -4.3°
Reaches altitude 10° 17:23:46 10° 46° (NE) 2,964 5.0 -4.8°
Maximum altitude 17:30:15 68° 325° (NW) 1,179 3.6 -5.9°
Drops below altitude 10° 17:36:44 10° 244° (WSW) 2,961 7.0 -7.1°
Sets 17:39:13 0° 242° (WSW) 3,918 7.8 -7.6°
